LiveATC.Net - Listen to live air traffic control over the Internet!


ICAO: LFBL  IATA: LIG   Airport: Limoges-Bellegarde Airport
City: Limoges
Country: France   Continent: Europe
LFBU METAR Weather: LFBU 271030Z AUTO 17011KT 9999 -RA ///TCU 07/06 Q1014 TEMPO 22015G25KT 3000 RA BKN007 OVC020
LFBL Flight Activity (FlightAware)

LFBU/LFBL Tower
Feed Status: UP   Listeners: 0
Listen in your browser - HTML5 player (in browser, HTML5)
Click here to listen with your own player (launches your MP3 player)
Archive Access: LFBU/LFBL Tower
FacilityFrequency
LFBL Limoges Tower124.055
LFBU Angouleme Tower123.150
Medoc124.325

NOTICE

Unauthorized use prohibited. See LiveATC.net Terms of Service


Airport/ARTCC Code
Frequency Search
(e.g., 124.400, 128.75)
Site-wide search
 


Browse Feeds
Top 50 Feeds
Coverage Map
Bad Weather Areas

LiveATC FAQ
Offer LiveATC feed
Contact LiveATC.net
Press Inquiries

LiveATC on iPhone
LiveATC on Android

Windows Phone
Windows 8/10

LiveATC Mobile
(Mobile browser)

ATC Audio Archives
Interesting Recordings

LiveATC Forums


Home Page
About LiveATC.net
Make a Donation
Terms of Use
Privacy Policy

Canadian Air Freqs

AIRMETs/SIGMETs

FAA Airport Status
Nat'l Airspace Status
Arrival Demand Charts


Server Software By:
Icecast.org
Liquidsoap